Location: Northern Prairie Star Party
(53.2167°N, 112.5333°W)
Time: 16:23:53
(UTC-06:00)

Amateur Radio Satellites - All Passes

Search period start: 19 August 2017 15:53
Search period end: 20 August 2017 15:53
Location: Northern Prairie Star Party, 53.2167°N, 112.5333°W

Satellite Date Start Highest point End Downlink Frequencies (MHz)
Time Altitude Azimuth
UKube-1 19 Aug 16:00:08 16:04:23 55° 291° (WNW) 16:08:36 .
VELOX 1 19 Aug 16:13:05 16:15:31 15° 307° (NW) 16:17:55 145.980
DX 1 19 Aug 16:18:49 16:22:36 29° 298° (WNW) 16:26:21 434.975-435.025
ITUPSAT 1 19 Aug 16:25:19 16:29:48 39° 97° (E) 16:34:16 437.325
Tancredo 1 19 Aug 16:32:38 16:34:43 18° 212° (SSW) 16:36:48 437.200
YUBILEINY 19 Aug 16:51:50 17:00:27 63° 93° (E) 17:09:03 435.215
RS-15 19 Aug 16:56:58 17:08:53 49° 357° (N) 17:20:29 29.354- 29.394
ITAMSAT 1 19 Aug 17:00:07 17:04:44 31° 265° (W) 17:09:22 435.822/435.867
BEESAT 2 19 Aug 17:00:41 17:02:12 12° 249° (WSW) 17:03:43 435.950
DOVE 4 19 Aug 17:09:46 17:14:43 43° 66° (ENE) 17:19:33 437.250
HO-68 19 Aug 17:12:49 17:17:30 19° 40° (NE) 17:22:10 435.675
KAITUO 1B 19 Aug 17:14:13 17:15:44 12° 56° (NE) 17:17:15 145.475/437.950
ISS 19 Aug 17:14:39 17:17:27 26° 208° (SSW) 17:20:14 437.550
CUTE-I 19 Aug 17:19:04 17:23:19 25° 56° (NE) 17:27:34 437.470
nSIGHT-1 19 Aug 17:25:09 17:27:45 22° 210° (SSW) 17:30:21 .
MOZHAYETS 4 19 Aug 17:26:52 17:31:29 70° 288° (WNW) 17:36:04
LilacSat-2 19 Aug 17:29:16 17:32:11 21° 61° (ENE) 17:35:06 437.200
O/OREOS (USA 219) 19 Aug 17:29:36 17:31:11 12° 26° (NNE) 17:32:46 437.305
BEESAT 19 Aug 17:29:39 17:34:23 63° 291° (WNW) 17:39:05 436.000
XW-2D 19 Aug 17:35:14 17:38:15 23° 63° (ENE) 17:41:17 145.860 - 145.880
UKube-1 19 Aug 17:38:35 17:39:31 11° 311° (NW) 17:40:27 .
CUBESAT XI-V 19 Aug 17:42:35 17:47:08 45° 98° (E) 17:51:39 437.345
XW-2B 19 Aug 17:45:57 17:49:11 28° 65° (ENE) 17:52:27 145.730 - 145.750
NUDT-PHONESAT 19 Aug 17:47:35 17:50:28 22° 63° (ENE) 17:53:24 437.300
KKS-1 19 Aug 17:49:13 17:52:55 25° 93° (E) 17:56:34 437.445
AO-7 19 Aug 17:49:51 17:56:08 23° 273° (W) 18:02:27 .
ITUPSAT 1 19 Aug 18:03:15 18:07:37 36° 297° (WNW) 18:11:57 437.325
XW-2C 19 Aug 18:04:33 18:08:06 41° 69° (ENE) 18:11:42 145.795 - 145.815
CUTE 1.7 + AOD 2 19 Aug 18:07:44 18:10:01 14° 55° (NE) 18:12:18 437.475
XW-2F 19 Aug 18:17:48 18:21:28 54° 70° (ENE) 18:25:10 145.980 - 146.000
STARS 19 Aug 18:31:51 18:35:39 28° 95° (E) 18:39:24 437.465
KAITUO 1B 19 Aug 18:45:24 18:49:07 86° 74° (ENE) 18:52:54 145.475/437.950
DOVE 4 19 Aug 18:47:36 18:52:27 37° 265° (W) 18:57:13 437.250
YUBILEINY 19 Aug 18:49:38 18:57:47 41° 297° (WNW) 19:05:58 435.215
SEEDS 19 Aug 18:56:56 19:00:21 24° 61° (ENE) 19:03:47 437.485
HO-68 19 Aug 18:56:56 19:03:54 58° 63° (ENE) 19:10:54 435.675
CUTE-I 19 Aug 18:57:33 19:02:55 73° 255° (WSW) 19:08:17 437.470
LilacSat-2 19 Aug 19:02:33 19:06:12 46° 261° (W) 19:09:55 437.200
MOZHAYETS 4 19 Aug 19:05:34 19:07:51 14° 308° (NW) 19:10:08
O/OREOS (USA 219) 19 Aug 19:07:42 19:11:55 37° 50° (NE) 19:16:10 437.305
XW-2D 19 Aug 19:08:40 19:12:14 41° 262° (W) 19:15:51 145.860 - 145.880
BEESAT 19 Aug 19:09:04 19:11:17 13° 311° (NW) 19:13:30 436.000
RS-15 19 Aug 19:11:43 19:23:57 63° 29° (NNE) 19:35:37 29.354- 29.394
XW-2A 19 Aug 19:11:48 19:14:27 22° 64° (ENE) 19:17:06 145.665 - 145.685
XW-2B 19 Aug 19:19:53 19:23:18 33° 264° (W) 19:26:47 145.730 - 145.750
CUBESAT XI-V 19 Aug 19:20:14 19:24:22 31° 298° (WNW) 19:28:29 437.345
NUDT-PHONESAT 19 Aug 19:20:41 19:24:10 40° 262° (W) 19:27:42 437.300
KKS-1 19 Aug 19:25:25 19:29:43 48° 293° (WNW) 19:33:59 437.445
UWE-3 19 Aug 19:34:05 19:37:39 28° 63° (ENE) 19:41:12 435.000/436.395/437.385
CUBEBUG 2 19 Aug 19:37:52 19:41:56 46° 69° (ENE) 19:45:57 437.445
XW-2C 19 Aug 19:39:32 19:42:29 22° 268° (W) 19:45:28 145.795 - 145.815
CUTE 1.7 + AOD 2 19 Aug 19:40:57 19:45:12 84° 72° (ENE) 19:49:30 437.475
AAUSAT CUBESAT 2 19 Aug 19:46:12 19:49:58 34° 65° (ENE) 19:53:45 437.432
Oscar 11 19 Aug 19:50:21 19:53:24 19° 58° (ENE) 19:56:28 .
XW-2F 19 Aug 19:53:25 19:55:56 17° 270° (W) 19:58:28 145.980 - 146.000
STARS 19 Aug 20:08:00 20:12:08 42° 294° (WNW) 20:16:14 437.465
ZACube-1 19 Aug 20:16:33 20:20:26 39° 67° (ENE) 20:24:19 437.345
KAITUO 1B 19 Aug 20:22:41 20:23:43 11° 274° (W) 20:24:45 145.475/437.950
SEEDS 19 Aug 20:31:42 20:35:48 49° 261° (W) 20:39:56 437.485
AO-73 19 Aug 20:38:23 20:42:25 57° 71° (ENE) 20:46:30 145.935
CUTE-I 19 Aug 20:41:17 20:43:56 14° 276° (W) 20:46:34 437.470
XW-2A 19 Aug 20:44:01 20:47:03 33° 263° (W) 20:50:08 145.665 - 145.685
HO-68 19 Aug 20:45:21 20:51:56 39° 264° (W) 20:58:37 435.675
O/OREOS (USA 219) 19 Aug 20:47:10 20:51:22 38° 251° (WSW) 20:55:36 437.305
YUBILEINY 19 Aug 20:53:42 20:57:47 14° 326° (NW) 21:01:52 435.215
STRAND 1 19 Aug 20:57:01 21:02:04 56° 101° (E) 21:07:05 437.568
DELFI C3 19 Aug 21:04:38 21:07:53 24° 62° (ENE) 21:11:10 145.870
Max Valier Satellite 19 Aug 21:08:43 21:11:21 19° 61° (ENE) 21:14:01 145.860
UWE-3 19 Aug 21:10:04 21:14:01 39° 263° (W) 21:17:57 435.000/436.395/437.385
CUBEBUG 2 19 Aug 21:15:20 21:18:47 24° 267° (W) 21:22:11 437.445
CUTE 1.7 + AOD 2 19 Aug 21:19:27 21:21:39 14° 274° (W) 21:23:51 437.475
AAUSAT CUBESAT 2 19 Aug 21:21:39 21:25:25 32° 265° (W) 21:29:14 437.432
Oscar 11 19 Aug 21:24:49 21:29:06 69° 257° (WSW) 21:33:27 .
RS-15 19 Aug 21:24:53 21:36:50 66° 238° (WSW) 21:48:09 29.354- 29.394
FO-29 19 Aug 21:36:58 21:40:30 16° 83° (E) 21:43:50 435.910
ZACube-1 19 Aug 21:53:19 21:56:52 27° 267° (W) 22:00:24 437.345
EO-88 19 Aug 22:04:32 22:08:04 53° 71° (ENE) 22:11:39 145.990 - 145.960
LO-87 19 Aug 22:07:48 22:09:10 12° 56° (ENE) 22:10:32 145.935 - 145.965
ESTCUBE 1 19 Aug 22:15:41 22:18:13 15° 53° (NE) 22:20:45 437.505/2401.250
AO-73 19 Aug 22:16:05 22:19:02 19° 270° (W) 22:22:00 145.935
UNISAT 6 19 Aug 22:30:01 22:33:00 18° 90° (E) 22:36:01 437.425
STRAND 1 19 Aug 22:36:40 22:41:00 28° 301° (WNW) 22:45:18 437.568
DELFI C3 19 Aug 22:38:37 22:42:27 44° 261° (W) 22:46:20 145.870
Max Valier Satellite 19 Aug 22:41:22 22:44:55 48° 260° (W) 22:48:30 145.860
PRISM 19 Aug 22:58:23 23:01:40 22° 92° (E) 23:04:54 437.425
TIGRISAT 19 Aug 23:04:53 23:08:48 33° 96° (E) 23:12:44 435.000
FO-29 19 Aug 23:20:47 23:26:43 87° 106° (ESE) 23:32:04 435.910
PCSat 19 Aug 23:31:05 23:35:40 29° 112° (ESE) 23:40:16 145.827
LO-87 19 Aug 23:38:26 23:42:02 90° 262° (W) 23:45:38 145.935 - 145.965
RS-15 19 Aug 23:38:55 23:46:45 21° 264° (W) 23:54:23 29.354- 29.394
EO-88 19 Aug 23:39:43 23:42:04 16° 270° (W) 23:44:26 145.990 - 145.960
ESTCUBE 1 19 Aug 23:49:47 23:54:18 79° 73° (ENE) 23:58:53 437.505/2401.250
AIST 2D 20 Aug 00:01:15 00:03:49 18° 91° (E) 00:06:22 435.315
M-CUBED/EXP-1 PRIME 20 Aug 00:02:29 00:04:33 13° 91° (E) 00:06:33 437.505
VELOX 1 20 Aug 00:02:30 00:06:23 30° 62° (ENE) 00:10:17 145.980
UNISAT 6 20 Aug 00:05:53 00:10:09 64° 289° (WNW) 00:14:26 437.425
DX 1 20 Aug 00:09:51 00:12:17 15° 53° (NE) 00:14:43 434.975-435.025
SPROUT 20 Aug 00:19:06 00:23:10 45° 68° (ENE) 00:27:14 437.525
SO-50 20 Aug 00:29:46 00:33:53 36° 123° (ESE) 00:38:02 436.795
PRISM 20 Aug 00:33:10 00:37:12 49° 292° (WNW) 00:41:10 437.425
50 SAT 20 Aug 00:39:14 00:41:57 22° 63° (ENE) 00:44:40 437.505
TIGRISAT 20 Aug 00:41:39 00:45:31 34° 295° (WNW) 00:49:25 435.000
NANOSAT C BR1 20 Aug 00:52:38 00:56:12 26° 94° (E) 00:59:44 145.865
POLYITAN 1 20 Aug 00:56:04 00:59:50 31° 95° (E) 01:03:35 437.675
YUBILEINY 20 Aug 00:58:00 01:02:38 15° 37° (NE) 01:07:14 435.215
FO-29 20 Aug 01:06:41 01:11:04 22° 310° (NW) 01:15:08 435.910
QB50P2 20 Aug 01:10:58 01:15:02 46° 99° (E) 01:19:06 145.880/145.840
EO-79 20 Aug 01:12:07 01:16:08 43° 99° (E) 01:20:09 145.935-145.965
PCSat 20 Aug 01:13:17 01:18:42 68° 313° (NW) 01:24:09 145.827
UKube-1 20 Aug 01:24:32 01:28:34 39° 65° (ENE) 01:32:38 .
ESTCUBE 1 20 Aug 01:28:53 01:31:42 16° 272° (W) 01:34:31 437.505/2401.250
BEESAT 20 Aug 01:31:07 01:32:17 11° 46° (NE) 01:33:27 436.000
AIST 2D 20 Aug 01:33:49 01:37:14 44° 290° (WNW) 01:40:38 435.315
M-CUBED/EXP-1 PRIME 20 Aug 01:35:10 01:39:44 83° 111° (ESE) 01:43:58 437.505
VELOX 1 20 Aug 01:38:29 01:42:44 42° 262° (W) 01:46:59 145.980
DX 1 20 Aug 01:43:24 01:47:48 81° 71° (ENE) 01:52:13 434.975-435.025
DUCHIFAT 1 20 Aug 01:43:28 01:47:40 70° 103° (ESE) 01:51:50 145.980
UNISAT 6 20 Aug 01:44:38 01:46:05 12° 309° (NW) 01:47:32 437.425
BUGSAT 1 20 Aug 01:48:32 01:51:56 25° 94° (E) 01:55:18 437.445
SPROUT 20 Aug 01:55:45 01:59:16 25° 267° (W) 02:02:48 437.525
ITUPSAT 1 20 Aug 02:02:19 02:05:27 18° 53° (NE) 02:08:35 437.325
Oscar 19 20 Aug 02:09:33 02:13:43 23° 91° (E) 02:17:50 437.125/150
SO-50 20 Aug 02:09:53 02:14:17 50° 323° (NW) 02:18:42 436.795
50 SAT 20 Aug 02:11:18 02:14:28 35° 262° (W) 02:17:40 437.505
NANOSAT C BR1 20 Aug 02:28:06 02:32:03 41° 293° (WNW) 02:36:00 145.865
POLYITAN 1 20 Aug 02:31:49 02:35:40 36° 295° (WNW) 02:39:31 437.675
QB50P2 20 Aug 02:47:10 02:50:39 25° 298° (WNW) 02:54:07 145.880/145.840
EO-79 20 Aug 02:48:13 02:51:45 27° 298° (WNW) 02:55:16 145.935-145.965
YUBILEINY 20 Aug 02:54:03 03:02:22 45° 65° (ENE) 03:10:37 435.215
MOZHAYETS 4 20 Aug 02:58:00 03:02:08 35° 64° (ENE) 03:06:18
PCSat 20 Aug 02:58:34 03:03:03 25° 337° (NNW) 03:07:34 145.827
NO-84 20 Aug 03:00:41 03:02:49 19° 141° (SE) 03:04:57 435.350 FM
UKube-1 20 Aug 03:00:53 03:04:42 30° 265° (W) 03:08:32 .
BEESAT 20 Aug 03:04:27 03:09:02 49° 67° (ENE) 03:13:38 436.000
M-CUBED/EXP-1 PRIME 20 Aug 03:10:20 03:13:34 20° 312° (NW) 03:16:41 437.505
Gurwin Techsat 1B 20 Aug 03:13:43 03:18:55 50° 100° (E) 03:24:04 435.225
CUBESAT XI-V 20 Aug 03:16:37 03:19:32 17° 54° (NE) 03:22:28 437.345
DUCHIFAT 1 20 Aug 03:20:02 03:22:53 18° 303° (WNW) 03:25:45 145.980
DX 1 20 Aug 03:22:00 03:24:34 15° 272° (W) 03:27:08 434.975-435.025
BUGSAT 1 20 Aug 03:23:40 03:27:26 39° 293° (WNW) 03:31:11 437.445
ITUPSAT 1 20 Aug 03:37:53 03:42:39 89° 77° (ENE) 03:47:27 437.325
Oscar 19 20 Aug 03:48:18 03:53:29 66° 291° (WNW) 03:58:39 437.125/150
AO-7 20 Aug 03:48:51 03:55:17 24° 88° (E) 04:01:39 .
SO-50 20 Aug 03:52:09 03:55:41 22° 347° (NNW) 03:59:15 436.795
STARS 20 Aug 04:01:46 04:02:45 11° 49° (NE) 04:03:44 437.465
MOZHAYETS 4 20 Aug 04:35:06 04:39:18 36° 264° (W) 04:43:32
NO-84 20 Aug 04:37:01 04:39:51 85° 159° (SSE) 04:42:45 435.350 FM
BEESAT 20 Aug 04:42:59 04:47:02 27° 266° (W) 04:51:06 436.000
PCSat 20 Aug 04:44:26 04:48:17 19° 3° (N) 04:52:08 145.827
YUBILEINY 20 Aug 04:51:03 04:59:29 56° 270° (W) 05:07:52 435.215
CUBESAT XI-V 20 Aug 04:51:34 04:56:14 86° 76° (ENE) 05:00:59 437.345
KKS-1 20 Aug 04:52:43 04:57:02 49° 68° (ENE) 05:01:21 437.445
Gurwin Techsat 1B 20 Aug 04:53:59 04:58:42 33° 300° (WNW) 05:03:25 435.225
ITAMSAT 1 20 Aug 05:05:36 05:10:44 58° 102° (ESE) 05:15:49 435.822/435.867
ITUPSAT 1 20 Aug 05:18:26 05:21:11 15° 273° (W) 05:23:57 437.325
Oscar 19 20 Aug 05:29:00 05:31:56 15° 311° (NW) 05:34:50 437.125/150
STARS 20 Aug 05:33:53 05:38:11 54° 69° (ENE) 05:42:30 437.465
SO-50 20 Aug 05:34:04 05:37:34 21° 11° (NNE) 05:41:05 436.795
AO-7 20 Aug 05:40:54 05:49:19 84° 110° (ESE) 05:57:39 .
AO-85 20 Aug 06:01:36 06:03:42 14° 114° (ESE) 06:05:50 145.980
NO-84 20 Aug 06:14:30 06:17:21 57° 2° (N) 06:20:17 435.350 FM
PCSat 20 Aug 06:28:35 06:33:23 30° 29° (NNE) 06:38:09 145.827
KKS-1 20 Aug 06:30:08 06:33:50 25° 267° (W) 06:37:33 437.445
LilacSat-2 20 Aug 06:30:34 06:32:32 13° 87° (E) 06:34:30 437.200
CUBESAT XI-V 20 Aug 06:31:31 06:34:17 15° 274° (W) 06:37:04 437.345
XW-2D 20 Aug 06:35:42 06:37:53 15° 88° (E) 06:40:05 145.860 - 145.880
DOVE 4 20 Aug 06:40:02 06:44:32 43° 97° (E) 06:48:46 437.250
STRAND 1 20 Aug 06:41:05 06:45:24 28° 59° (ENE) 06:49:43 437.568
BEESAT 3 20 Aug 06:43:00 06:46:52 47° 126° (SE) 06:50:47 437.485
ITAMSAT 1 20 Aug 06:45:33 06:49:56 29° 302° (WNW) 06:54:18 435.822/435.867
NUDT-PHONESAT 20 Aug 06:45:44 06:47:35 13° 88° (E) 06:49:27 437.300
XW-2B 20 Aug 06:46:22 06:49:02 18° 90° (E) 06:51:41 145.730 - 145.750
YUBILEINY 20 Aug 06:50:11 06:54:15 14° 294° (WNW) 06:58:18 435.215
BEESAT 2 20 Aug 06:55:25 06:58:44 25° 119° (ESE) 07:02:06 435.950
XW-2C 20 Aug 07:04:57 07:08:16 27° 94° (E) 07:11:33 145.795 - 145.815
CUTE-I 20 Aug 07:08:28 07:13:03 28° 93° (E) 07:17:36 437.470
STARS 20 Aug 07:11:24 07:14:50 22° 268° (W) 07:18:18 437.465
SO-50 20 Aug 07:14:40 07:19:02 45° 35° (NE) 07:23:27 436.795
XW-2F 20 Aug 07:17:41 07:21:12 33° 96° (E) 07:24:43 145.980 - 146.000
CUTE 1.7 + AOD 2 20 Aug 07:22:09 07:22:51 10° 83° (E) 07:23:32 437.475
AO-7 20 Aug 07:34:10 07:41:24 34° 314° (NW) 07:48:35 .
AO-85 20 Aug 07:39:34 07:43:29 90° 301° (WNW) 07:47:29 145.980
KAITUO 1B 20 Aug 07:44:11 07:47:55 51° 100° (E) 07:51:38 145.475/437.950
NO-84 20 Aug 07:51:53 07:54:47 71° 204° (SSW) 07:57:54 435.350 FM
FO-29 20 Aug 07:54:59 08:00:23 23° 51° (NE) 08:05:22 435.910
XW-2A 20 Aug 08:01:28 08:01:53 10° 87° (E) 08:02:18 145.665 - 145.685
LilacSat-2 20 Aug 08:03:26 08:07:18 75° 286° (WNW) 08:11:11 437.200
HO-68 20 Aug 08:05:20 08:11:43 33° 93° (E) 08:18:03 435.675
XW-2D 20 Aug 08:08:41 08:12:31 68° 287° (WNW) 08:16:20 145.860 - 145.880
SEEDS 20 Aug 08:09:36 08:12:43 19° 90° (E) 08:15:48 437.485
PCSat 20 Aug 08:11:58 08:17:27 89° 220° (SW) 08:22:53 145.827
DOVE 4 20 Aug 08:17:59 08:22:06 30° 298° (WNW) 08:25:58 437.250
NUDT-PHONESAT 20 Aug 08:18:11 08:21:56 72° 286° (WNW) 08:25:41 437.300
STRAND 1 20 Aug 08:19:17 08:24:19 57° 259° (W) 08:29:23 437.568
XW-2B 20 Aug 08:19:46 08:23:32 54° 289° (WNW) 08:27:18 145.730 - 145.750
BEESAT 3 20 Aug 08:20:48 08:24:34 36° 327° (NNW) 08:28:22 437.485
BEESAT 2 20 Aug 08:32:14 08:36:13 58° 319° (NW) 08:40:17 435.950
TIGRISAT 20 Aug 08:36:22 08:37:37 11° 51° (NE) 08:38:52 435.000
XW-2C 20 Aug 08:39:00 08:42:31 35° 293° (WNW) 08:46:02 145.795 - 145.815
CUTE-I 20 Aug 08:48:13 08:53:26 56° 293° (WNW) 08:58:36 437.470
XW-2F 20 Aug 08:51:58 08:55:17 28° 295° (WNW) 08:58:34 145.980 - 146.000
UWE-3 20 Aug 08:52:56 08:56:28 25° 93° (E) 09:00:03 435.000/436.395/437.385
CUTE 1.7 + AOD 2 20 Aug 08:55:10 08:59:29 73° 102° (ESE) 09:03:46 437.475
SO-50 20 Aug 08:55:14 08:59:32 42° 236° (SW) 09:03:52 436.795
AAUSAT CUBESAT 2 20 Aug 08:57:08 09:00:43 26° 93° (E) 09:04:16 437.432
CUBEBUG 2 20 Aug 08:58:22 09:02:23 44° 99° (E) 09:06:26 437.445
Oscar 11 20 Aug 09:06:43 09:09:19 15° 87° (E) 09:11:54 .
KAITUO 1B 20 Aug 09:18:49 09:21:37 20° 299° (WNW) 09:24:25 145.475/437.950
AO-85 20 Aug 09:21:08 09:24:23 24° 336° (NNW) 09:27:44 145.980
M-CUBED/EXP-1 PRIME 20 Aug 09:21:23 09:22:47 11° 40° (NE) 09:24:11 437.505
AO-7 20 Aug 09:27:28 09:31:49 15° 339° (NNW) 09:36:09 .
NO-84 20 Aug 09:29:45 09:31:50 17° 220° (SW) 09:34:00 435.350 FM
O/OREOS (USA 219) 20 Aug 09:29:48 09:30:57 11° 96° (E) 09:32:06 437.305
XW-2A 20 Aug 09:31:43 09:35:07 79° 287° (WNW) 09:38:31 145.665 - 145.685
ZACube-1 20 Aug 09:34:08 09:38:06 36° 97° (E) 09:42:06 437.345
UNISAT 6 20 Aug 09:34:25 09:38:16 33° 65° (ENE) 09:42:08 437.425
FO-29 20 Aug 09:37:13 09:44:42 79° 70° (ENE) 09:51:23 435.910
LilacSat-2 20 Aug 09:39:38 09:40:54 11° 306° (NW) 09:42:10 437.200
SEEDS 20 Aug 09:44:33 09:48:46 59° 289° (WNW) 09:52:57 437.485
XW-2D 20 Aug 09:45:18 09:45:58 10° 307° (NW) 09:46:38 145.860 - 145.880
HO-68 20 Aug 09:52:52 09:59:58 67° 295° (WNW) 10:07:02 435.675
PRISM 20 Aug 09:52:59 09:56:49 36° 65° (ENE) 10:00:40 437.425
RS-15 20 Aug 09:53:03 09:56:50 12° 87° (E) 10:00:36 29.354- 29.394
NUDT-PHONESAT 20 Aug 09:54:23 09:55:08 10° 306° (NW) 09:55:53 437.300
AO-73 20 Aug 09:55:40 09:59:50 52° 100° (E) 10:04:05 145.935
PCSat 20 Aug 09:56:20 10:00:10 20° 252° (WSW) 10:03:58 145.827
BEESAT 3 20 Aug 10:00:26 10:03:11 17° 350° (N) 10:05:55 437.485
Max Valier Satellite 20 Aug 10:06:56 10:07:54 11° 86° (E) 10:08:51 145.860
TIGRISAT 20 Aug 10:09:15 10:13:31 62° 71° (ENE) 10:17:44 435.000
DELFI C3 20 Aug 10:10:00 10:12:33 16° 89° (E) 10:15:05 145.870
BEESAT 2 20 Aug 10:11:39 10:14:45 20° 342° (NNW) 10:17:52 435.950
UWE-3 20 Aug 10:29:07 10:33:07 43° 292° (WNW) 10:37:10 435.000/436.395/437.385
CUTE-I 20 Aug 10:29:53 10:32:26 14° 314° (NW) 10:34:59 437.470
CUTE 1.7 + AOD 2 20 Aug 10:31:53 10:34:51 18° 302° (WNW) 10:37:48 437.475
AAUSAT CUBESAT 2 20 Aug 10:32:21 10:36:19 41° 293° (WNW) 10:40:15 437.432
CUBEBUG 2 20 Aug 10:35:23 10:38:51 26° 297° (WNW) 10:42:21 437.445
QB50P2 20 Aug 10:36:14 10:38:12 13° 53° (NE) 10:40:09 145.880/145.840
EO-79 20 Aug 10:37:25 10:39:11 12° 53° (NE) 10:40:56 145.935-145.965
Tancredo 1 20 Aug 10:37:54 10:39:28 14° 145° (SE) 10:41:04 437.200
AIST 2D 20 Aug 10:41:36 10:44:05 19° 62° (ENE) 10:46:36 435.315
Oscar 11 20 Aug 10:41:38 10:46:00 78° 287° (WNW) 10:50:22 .
M-CUBED/EXP-1 PRIME 20 Aug 10:51:47 10:56:08 44° 59° (ENE) 11:00:34 437.505
EO-88 20 Aug 11:00:42 11:03:59 29° 96° (E) 11:07:14 145.990 - 145.960
AO-85 20 Aug 11:03:30 11:06:05 16° 1° (N) 11:08:45 145.980
O/OREOS (USA 219) 20 Aug 11:05:03 11:09:30 72° 116° (ESE) 11:13:59 437.305
DUCHIFAT 1 20 Aug 11:07:01 11:09:48 18° 57° (ENE) 11:12:37 145.980
ZACube-1 20 Aug 11:10:35 11:14:20 31° 296° (WNW) 11:18:09 437.345
UNISAT 6 20 Aug 11:11:03 11:15:00 34° 264° (W) 11:18:56 437.425
AO-7 20 Aug 11:18:12 11:21:15 12° 7° (N) 11:24:19 .
SEEDS 20 Aug 11:22:35 11:23:36 11° 309° (NW) 11:24:38 437.485
FO-29 20 Aug 11:24:07 11:30:17 28° 270° (W) 11:36:01 435.910
PRISM 20 Aug 11:28:27 11:32:09 30° 265° (W) 11:35:52 437.425
AO-73 20 Aug 11:32:27 11:35:50 23° 299° (WNW) 11:39:14 145.935
ISS 20 Aug 11:34:46 11:36:50 16° 144° (SE) 11:38:53 437.550
ESTCUBE 1 20 Aug 11:38:03 11:39:30 11° 84° (E) 11:40:56 437.505/2401.250
Max Valier Satellite 20 Aug 11:38:34 11:42:18 86° 286° (WNW) 11:46:01 145.860
BEESAT 3 20 Aug 11:39:16 11:42:08 18° 13° (NNE) 11:44:58 437.485
HO-68 20 Aug 11:41:29 11:46:33 21° 317° (NW) 11:51:36 435.675
nSIGHT-1 20 Aug 11:43:38 11:45:57 18° 146° (SE) 11:48:17 .
DELFI C3 20 Aug 11:43:46 11:47:45 64° 287° (WNW) 11:51:40 145.870
TIGRISAT 20 Aug 11:47:35 11:50:37 18° 270° (W) 11:53:38 435.000
NANOSAT C BR1 20 Aug 11:50:11 11:54:09 43° 67° (ENE) 11:58:08 145.865
BEESAT 2 20 Aug 11:51:12 11:53:51 16° 5° (N) 11:56:31 435.950
POLYITAN 1 20 Aug 11:54:09 11:58:13 51° 69° (ENE) 12:02:18 437.675
RS-15 20 Aug 11:54:26 12:05:48 47° 113° (ESE) 12:17:11 29.354- 29.394
Oscar 19 20 Aug 11:56:15 11:58:54 14° 48° (NE) 12:01:34 437.125/150
QB50P2 20 Aug 12:09:05 12:13:18 76° 73° (ENE) 12:17:31 145.880/145.840
EO-79 20 Aug 12:10:02 12:14:12 72° 73° (ENE) 12:18:26 145.935-145.965
Tancredo 1 20 Aug 12:11:22 12:14:09 43° 164° (SSE) 12:16:57 437.200
AIST 2D 20 Aug 12:13:40 12:17:01 45° 261° (W) 12:20:26 435.315
Oscar 11 20 Aug 12:19:13 12:21:27 14° 306° (NW) 12:23:42 .
M-CUBED/EXP-1 PRIME 20 Aug 12:26:29 12:30:36 33° 259° (W) 12:34:50 437.505
LO-87 20 Aug 12:32:33 12:35:59 45° 99° (E) 12:39:24 145.935 - 145.965
EO-88 20 Aug 12:34:24 12:37:37 29° 294° (WNW) 12:40:50 145.990 - 145.960
DUCHIFAT 1 20 Aug 12:40:51 12:45:01 72° 257° (WSW) 12:49:13 145.980
BUGSAT 1 20 Aug 12:43:41 12:47:31 41° 67° (ENE) 12:51:21 437.445
AO-85 20 Aug 12:44:16 12:47:44 26° 25° (NNE) 12:51:22 145.980
O/OREOS (USA 219) 20 Aug 12:45:46 12:49:23 23° 318° (NW) 12:53:02 437.305
Gurwin Techsat 1B 20 Aug 13:02:23 13:06:52 29° 58° (ENE) 13:11:23 435.225
AO-7 20 Aug 13:05:07 13:11:04 22° 34° (NE) 13:17:00 .
ISS 20 Aug 13:09:36 13:12:46 46° 163° (SSE) 13:15:56 437.550
ESTCUBE 1 20 Aug 13:12:33 13:17:08 74° 104° (ESE) 13:21:40 437.505/2401.250
Max Valier Satellite 20 Aug 13:14:07 13:15:32 12° 304° (NW) 13:16:59 145.860
BEESAT 3 20 Aug 13:16:46 13:20:39 42° 36° (NE) 13:24:28 437.485
nSIGHT-1 20 Aug 13:18:41 13:21:52 51° 165° (SSE) 13:25:03 .
DELFI C3 20 Aug 13:20:56 13:21:43 10° 308° (NW) 13:22:31 145.870
VELOX 1 20 Aug 13:22:15 13:25:52 24° 92° (E) 13:29:26 145.980
NANOSAT C BR1 20 Aug 13:26:32 13:30:02 25° 267° (W) 13:33:33 145.865
BEESAT 2 20 Aug 13:29:10 13:32:47 29° 28° (NNE) 13:36:22 435.950
POLYITAN 1 20 Aug 13:31:01 13:34:17 22° 268° (W) 13:37:33 437.675
Oscar 19 20 Aug 13:32:12 13:37:16 61° 69° (ENE) 13:42:24 437.125/150
SPROUT 20 Aug 13:34:06 13:38:02 36° 97° (E) 13:41:58 437.525
Tancredo 1 20 Aug 13:46:17 13:49:12 64° 182° (S) 13:52:05 437.200
QB50P2 20 Aug 13:47:11 13:49:37 15° 272° (W) 13:52:04 145.880/145.840
EO-79 20 Aug 13:47:53 13:50:29 16° 272° (W) 13:53:04 145.935-145.965
RS-15 20 Aug 14:05:21 14:17:45 78° 320° (NW) 14:30:06 29.354- 29.394
LO-87 20 Aug 14:06:35 14:09:10 19° 298° (WNW) 14:11:44 145.935 - 145.965
BUGSAT 1 20 Aug 14:19:37 14:23:02 25° 266° (W) 14:26:27 437.445
AO-85 20 Aug 14:24:25 14:28:37 90° 215° (SW) 14:33:06 145.980
UKube-1 20 Aug 14:41:04 14:44:51 29° 95° (E) 14:48:36 .
Gurwin Techsat 1B 20 Aug 14:41:16 14:46:31 60° 258° (WSW) 14:51:49 435.225
ISS 20 Aug 14:45:49 14:49:05 67° 183° (S) 14:52:21 437.550
ESTCUBE 1 20 Aug 14:50:11 14:53:28 20° 303° (WNW) 14:56:44 437.505/2401.250
ITAMSAT 1 20 Aug 14:51:21 14:55:53 31° 59° (ENE) 15:00:25 435.822/435.867
AO-7 20 Aug 14:54:09 15:02:17 58° 58° (ENE) 15:10:25 .
BEESAT 3 20 Aug 14:54:29 14:58:12 36° 237° (WSW) 15:01:51 437.485
nSIGHT-1 20 Aug 14:54:51 14:58:06 65° 185° (S) 15:01:20 .
VELOX 1 20 Aug 14:58:17 15:02:35 50° 292° (WNW) 15:06:51 145.980
50 SAT 20 Aug 14:58:57 15:02:21 89° 43° (NE) 15:05:44 437.505
DX 1 20 Aug 15:01:21 15:05:43 63° 103° (ESE) 15:10:01 434.975-435.025
BEESAT 2 20 Aug 15:06:48 15:10:53 69° 230° (SW) 15:14:54 435.950
SPROUT 20 Aug 15:10:08 15:13:54 31° 296° (WNW) 15:17:39 437.525
Oscar 19 20 Aug 15:12:47 15:17:00 25° 268° (W) 15:21:16 437.125/150
Tancredo 1 20 Aug 15:21:29 15:24:09 32° 202° (SSW) 15:26:47 437.200
ITUPSAT 1 20 Aug 15:33:14 15:35:56 15° 87° (E) 15:38:37 437.325
